Theta_e
311 312 313 317 320 320 320 317 311 312 313 309 311 310 310 315 317 316 317 317 317 334 339 338 339 333 339 342 342 344 344 347 345 337 334 347 350 349 352 351 353 351 349 347 344 342 338 335 332 331 331 330 330 329 327 325 323 323 322 322 322 322 322 326 333 337 337 336 335 334 334 335 337 337 337 337 336 337 337 337 338 338 338 340 341 340 340 340 340 340 340 340 340 337 335 335 334
311 315 318 321 319 319 320 315 311 312 312 308 310 311 311 314 317 316 317 317 317 337 344 341 344 342 344 344 343 343 344 346 345 345 347 349 349 350 351 351 352 350 349 347 344 342 341 337 332 332 331 330 329 329 328 325 323 321 321 322 325 328 330 333 336 336 336 337 337 336 335 335 336 337 337 337 336 337 337 337 337 337 338 339 339 340 340 340 340 340 341 340 340 339 336 336 335
314 319 321 321 319 319 319 314 312 311 309 307 309 312 313 313 316 316 317 316 315 325 335 338 342 344 343 341 340 340 343 345 345 347 349 349 349 350 350 352 351 350 349 347 345 343 344 340 334 333 331 330 329 328 328 326 325 325 328 331 333 335 336 337 336 336 336 336 337 336 335 335 335 336 337 337 336 337 336 336 337 337 338 339 339 339 340 340 340 340 340 340 340 338 336 334 333
316 320 321 321 319 318 319 314 314 311 307 307 308 311 313 314 316 316 316 315 314 314 325 339 343 345 344 339 339 342 346 347 348 347 349 349 349 349 350 352 350 349 348 347 346 344 345 341 334 333 331 330 329 329 328 326 327 329 334 337 337 336 337 338 337 337 337 336 337 338 338 338 337 336 337 337 336 336 336 336 337 337 337 338 339 339 339 339 339 339 338 337 335 334 333 332 331
316 320 321 321 319 318 318 315 315 311 307 309 308 311 314 314 316 315 316 315 315 312 321 341 344 343 346 345 345 346 347 347 349 348 349 350 349 350 350 351 350 349 348 347 346 345 345 340 334 333 332 330 329 329 327 326 328 332 337 338 338 336 335 338 339 337 337 336 337 338 338 338 337 335 335 337 337 336 336 337 337 338 337 338 338 338 338 338 338 337 335 332 331 331 331 331 331
317 320 320 319 318 316 316 314 314 312 311 312 310 313 315 314 315 315 317 315 319 321 320 335 344 343 347 348 346 347 347 347 348 348 349 350 350 350 351 351 350 349 347 347 345 346 344 338 334 334 332 330 329 329 326 326 329 333 338 338 338 337 336 338 339 338 337 337 337 338 338 338 338 336 336 337 337 337 337 337 338 338 337 337 338 338 338 337 337 335 332 329 330 331 331 331 330
317 320 318 316 315 315 317 315 314 315 314 314 313 315 316 315 316 316 318 316 322 331 330 337 344 345 348 347 347 346 345 348 347 348 349 350 350 350 351 350 349 348 347 347 345 346 344 337 334 334 333 332 330 329 327 328 331 334 336 337 337 337 337 339 339 339 338 338 337 337 338 338 337 338 337 336 337 337 337 337 337 336 336 337 338 338 338 337 335 333 330 329 331 330 330 330 329
318 318 316 315 316 315 317 316 315 317 315 314 315 316 318 318 317 316 318 317 317 325 338 346 344 343 347 347 349 347 345 347 347 349 350 350 350 350 350 349 349 348 347 346 346 346 343 337 334 335 335 333 331 330 329 330 333 334 334 336 337 337 336 337 338 339 339 338 337 337 338 337 337 337 336 335 335 336 336 335 335 335 336 337 337 338 337 336 333 330 329 330 331 330 329 329 329
316 315 315 315 315 314 315 315 315 315 315 315 315 316 318 318 317 317 317 318 316 317 336 347 342 341 347 349 350 346 345 346 348 349 349 350 350 350 349 349 349 347 347 346 346 346 343 339 336 336 335 333 331 331 330 329 334 336 335 336 338 338 337 336 337 339 339 338 337 338 338 337 336 335 335 333 333 335 335 335 335 335 336 337 337 337 335 333 331 329 329 330 331 331 330 329 330
316 314 315 314 313 312 312 312 313 313 314 314 314 316 316 316 315 317 316 316 318 323 340 346 342 344 348 351 349 346 344 346 348 349 349 350 350 350 349 349 348 347 346 346 346 345 343 340 338 337 335 333 331 332 330 329 334 336 335 336 337 337 337 335 336 338 339 338 337 338 338 337 335 334 334 333 333 334 334 333 333 334 335 335 334 334 332 331 330 328 329 331 332 332 331 330 330
316 314 313 314 312 310 311 310 312 313 314 314 315 316 314 316 313 315 316 315 324 334 344 346 344 348 348 350 349 345 344 345 348 349 349 349 350 350 349 348 348 347 346 346 345 345 344 342 340 338 336 334 332 333 330 328 332 332 331 335 336 335 335 334 335 337 338 338 336 337 337 337 334 333 335 336 334 333 331 330 330 332 331 332 332 331 330 331 329 328 329 332 333 333 332 331 330
316 315 313 314 313 310 311 311 313 314 316 316 316 316 313 313 314 315 313 315 332 344 346 345 345 347 349 350 348 344 344 346 347 348 349 349 349 349 348 348 347 346 346 346 345 345 344 343 341 340 339 336 333 333 331 329 331 331 332 334 335 335 334 332 334 336 336 338 336 335 336 335 333 335 337 337 335 332 329 328 329 329 328 329 330 329 329 330 328 328 330 332 333 334 333 331 331
315 315 313 313 312 313 313 313 314 316 318 317 315 314 310 310 314 314 316 326 342 347 344 344 344 346 350 351 347 344 344 345 346 348 349 348 348 348 348 347 347 346 346 345 345 345 344 344 343 342 341 338 336 335 334 334 333 334 334 335 336 336 334 330 331 334 335 337 337 335 333 333 334 337 337 337 335 331 327 326 326 326 326 327 327 327 328 327 327 329 331 332 333 334 333 332 331
315 314 314 312 312 314 314 312 313 314 315 316 315 311 310 315 315 316 327 341 346 346 345 344 343 346 349 350 347 344 344 344 346 348 348 348 348 348 347 347 346 346 346 345 345 345 344 344 343 342 341 339 337 337 337 336 335 335 334 335 336 335 335 332 332 332 334 335 335 334 332 332 334 335 336 337 335 332 329 325 324 324 324 324 324 325 325 325 327 329 331 333 334 334 334 333 332
315 313 315 315 313 314 312 313 313 313 314 314 313 308 314 323 322 327 338 344 346 344 346 346 343 344 346 349 349 345 343 344 346 347 347 347 347 347 347 347 346 346 345 345 345 344 344 343 342 342 341 340 339 338 338 337 336 336 336 334 334 335 335 334 333 333 334 334 335 334 332 332 332 333 336 337 336 333 330 327 325 323 322 322 323 323 324 325 328 330 332 333 334 334 333 333 332
313 312 314 316 313 313 313 313 313 313 315 313 312 308 314 325 330 338 340 339 347 345 345 346 343 344 345 347 348 345 343 344 345 346 346 346 346 347 346 346 346 345 345 344 344 344 343 343 343 342 342 341 341 339 338 338 338 338 338 336 335 334 335 334 332 333 334 334 335 334 332 332 333 334 336 336 335 333 330 329 328 324 321 320 321 322 324 326 329 331 332 333 334 334 334 333 332
312 314 316 314 313 313 313 314 314 313 314 313 311 310 311 320 335 343 342 343 347 346 345 344 342 344 345 346 346 344 343 343 344 345 345 345 345 345 345 346 345 345 345 345 344 344 344 343 343 343 342 341 341 340 339 339 338 338 338 337 336 335 335 335 332 333 336 336 336 334 333 334 335 337 337 336 335 334 331 329 329 327 322 319 320 322 324 328 329 331 333 333 333 333 334 333 332
313 316 316 314 313 313 313 315 313 311 314 313 311 312 309 319 342 343 341 347 345 345 345 343 344 344 343 344 344 343 343 343 344 344 344 345 345 345 345 345 345 345 344 345 345 344 344 343 343 343 343 342 341 341 340 339 338 338 339 338 338 337 337 336 335 336 338 338 337 336 335 335 337 338 337 336 335 334 332 330 331 329 325 321 320 322 325 328 330 332 333 334 334 333 333 333 332
315 315 314 314 314 312 312 313 311 311 312 313 312 312 308 315 335 337 340 348 345 346 346 343 346 346 344 343 343 344 343 344 344 343 344 344 344 344 344 344 344 344 344 344 345 344 343 342 343 343 343 343 341 341 341 340 339 339 339 339 339 338 338 337 338 339 339 339 338 338 338 336 336 337 336 336 335 334 332 331 331 330 329 324 322 323 326 328 330 332 333 334 334 333 333 333 332
314 313 315 315 314 312 312 311 312 312 310 312 311 311 311 309 317 328 341 347 345 346 346 345 348 348 347 344 343 344 343 344 344 343 344 343 343 343 343 344 343 344 344 344 344 343 343 342 343 343 342 342 342 341 341 342 341 340 340 340 339 339 339 338 339 340 340 340 339 339 338 337 336 336 335 335 335 335 333 332 331 330 330 328 325 325 326 328 330 332 333 334 334 334 333 333 333
314 313 316 314 311 312 313 311 312 311 310 312 311 311 312 309 315 331 343 343 343 343 345 344 346 347 345 343 343 344 344 344 343 343 344 342 342 342 342 343 343 344 344 344 343 343 344 343 343 343 342 342 343 342 341 342 342 341 340 339 339 339 339 339 338 339 340 340 340 339 338 337 336 335 336 335 335 336 335 334 333 332 331 330 329 327 326 328 330 332 332 333 334 334 334 333 333
313 314 315 314 310 312 313 312 312 310 309 310 311 312 311 311 319 336 342 332 330 333 337 341 343 344 342 342 343 344 344 344 344 343 343 342 342 342 343 343 343 344 343 344 344 343 344 343 343 343 342 342 342 342 342 342 341 341 340 339 339 339 340 339 338 338 339 339 340 339 338 337 336 336 336 336 335 335 336 336 335 334 331 331 331 329 327 328 330 331 332 332 333 334 334 333 333
313 313 312 313 311 312 313 311 311 310 310 310 312 310 310 311 314 332 337 326 327 330 332 338 343 343 343 343 343 343 343 343 344 343 343 342 342 342 343 343 343 343 343 343 343 343 344 344 343 343 343 342 341 342 342 341 341 341 340 339 338 339 340 338 337 338 338 339 340 340 339 337 335 336 336 336 334 334 336 336 337 336 332 331 331 330 329 328 330 331 331 332 333 333 333 333 333
313 313 312 313 311 311 311 311 311 309 309 310 311 308 310 311 310 324 332 330 337 340 338 341 343 343 343 343 343 343 343 343 344 343 343 342 342 342 342 343 342 342 342 343 343 343 343 343 343 342 342 342 341 341 342 342 341 341 340 339 339 339 339 338 338 339 339 339 340 340 339 338 335 335 336 336 335 334 335 335 336 335 333 332 331 331 330 329 330 332 332 332 333 334 333 333 332
313 314 314 313 312 312 311 311 311 309 309 308 308 309 310 310 312 317 326 337 343 343 342 342 342 342 341 341 343 344 343 344 344 343 343 342 341 341 341 342 342 342 342 342 343 343 342 342 342 341 342 342 342 341 341 342 341 341 340 340 339 339 339 338 338 339 339 340 339 340 340 338 335 334 335 336 335 334 334 334 335 335 335 333 331 331 330 330 332 333 333 333 334 334 334 333 332
313 315 313 313 314 313 312 311 311 310 308 308 309 310 309 309 310 312 328 341 344 341 342 342 340 341 341 341 342 343 343 344 344 343 343 341 340 340 340 341 341 341 342 342 342 341 342 341 341 341 341 341 341 342 342 341 341 340 340 340 340 340 339 338 338 338 339 340 339 339 339 337 335 334 336 335 335 334 333 333 335 335 335 334 332 331 330 330 332 333 333 332 332 333 333 334 333
313 314 313 314 314 312 311 311 311 309 308 310 310 311 310 308 309 313 336 343 342 342 343 341 342 342 341 342 342 343 343 343 344 343 342 342 341 341 341 341 341 341 342 342 341 341 341 341 340 340 340 340 340 341 341 340 340 340 340 340 340 340 339 338 338 338 339 339 339 339 338 336 334 334 336 335 334 334 333 333 335 335 335 334 333 332 331 330 331 331 331 332 332 332 332 333 334
312 312 313 313 312 310 310 310 310 309 310 310 309 312 310 310 310 313 337 344 342 342 343 342 343 342 342 342 342 342 343 344 344 343 343 342 342 341 341 341 341 341 341 342 341 340 341 340 340 340 339 339 339 339 340 340 340 340 340 339 339 339 339 338 338 338 338 339 339 339 337 335 334 334 335 336 335 334 333 333 334 334 333 334 333 333 332 330 330 330 330 331 331 331 331 332 333
311 310 312 312 310 310 311 310 310 309 310 310 309 312 311 313 311 311 333 344 342 342 343 343 343 343 343 343 342 342 343 344 345 344 344 342 342 342 341 342 341 342 341 342 341 340 340 339 339 339 338 338 339 339 339 340 340 340 339 339 339 339 339 339 338 337 338 338 338 338 338 336 334 333 334 335 335 335 334 333 334 332 331 332 333 334 333 331 330 329 330 330 331 330 331 331 332
309 309 311 313 312 312 312 309 308 309 310 310 310 310 310 315 311 313 335 345 342 343 344 343 344 343 343 343 342 342 343 344 344 344 344 342 342 342 342 342 341 342 342 342 342 340 340 339 338 338 338 338 338 339 339 339 339 339 338 338 338 338 338 339 338 337 337 338 338 338 338 337 335 333 334 335 335 335 334 333 333 332 331 331 331 333 334 333 332 330 329 330 331 330 330 332 333
310 309 310 311 311 312 311 308 309 310 309 309 311 310 310 315 312 312 333 345 343 344 345 343 344 344 344 344 343 343 343 344 344 344 344 342 342 342 342 342 341 342 342 341 341 340 340 339 338 337 338 339 338 338 338 338 338 338 337 337 337 337 338 338 338 337 337 338 338 339 338 336 335 333 333 336 336 335 335 334 333 333 333 333 331 331 333 334 333 330 330 330 330 330 331 332 333
310 310 310 309 310 311 310 310 309 310 309 308 310 311 310 314 313 307 321 343 346 344 345 344 344 344 345 344 343 343 342 343 344 343 343 342 342 342 342 342 342 342 341 341 341 340 340 339 338 337 337 338 338 338 338 338 338 337 338 336 336 337 338 338 337 337 337 338 338 338 338 336 335 333 333 335 336 336 336 335 334 333 334 334 331 330 331 333 332 330 330 331 330 331 332 332 333
309 310 311 309 309 310 310 310 308 309 310 309 310 311 311 312 313 309 320 342 345 344 346 344 344 345 344 344 344 343 342 343 343 342 342 342 342 342 343 342 343 343 342 341 341 340 340 339 338 337 337 337 337 338 338 338 337 337 338 336 336 336 337 337 337 337 336 338 338 337 337 336 334 334 334 335 336 337 336 336 335 334 334 334 333 331 331 332 331 329 330 331 331 331 332 332 332
310 310 311 309 309 309 309 310 309 308 310 311 311 311 312 312 311 316 329 343 345 345 345 344 344 343 344 344 344 343 342 343 342 342 342 341 342 342 342 343 342 343 342 341 341 341 340 339 339 338 338 338 338 338 338 338 338 337 336 335 336 337 337 337 336 336 336 338 338 335 335 334 334 335 335 335 336 337 337 336 335 334 335 335 335 334 334 333 331 330 330 331 331 331 332 332 332
311 311 312 310 309 309 309 310 310 310 312 312 312 312 312 311 309 314 324 333 341 345 343 343 344 342 343 343 343 343 342 343 343 343 342 341 342 342 342 342 342 343 343 342 341 341 340 340 339 338 338 338 338 339 339 338 337 337 337 335 336 336 336 337 336 336 336 337 336 335 334 333 334 335 335 336 336 336 337 336 334 334 335 335 335 335 335 334 333 332 331 331 332 332 332 332 332
311 311 312 310 309 310 310 311 309 310 313 312 313 312 310 312 314 317 319 320 330 339 340 342 343 343 343 342 343 343 342 343 343 343 342 342 342 341 341 341 342 342 342 342 341 341 340 339 339 338 338 338 338 339 339 338 338 338 337 337 336 337 337 336 337 336 336 337 336 336 335 334 335 336 335 335 335 335 336 336 335 335 335 335 335 335 334 334 333 333 332 332 333 332 332 332 332
311 310 311 310 309 310 310 311 309 309 313 313 312 312 314 318 322 325 323 321 326 332 337 342 342 343 344 343 344 343 343 343 343 343 342 341 341 340 341 340 341 341 341 341 340 340 339 338 338 337 337 338 338 338 338 338 338 337 337 337 337 337 336 335 335 336 335 335 336 336 335 334 333 333 334 335 335 335 335 335 335 335 334 334 335 334 333 333 333 333 333 333 332 332 332 332 332
311 310 310 309 309 310 310 310 310 310 313 312 312 316 319 322 325 327 328 328 329 328 332 340 342 343 343 343 344 343 343 342 343 343 341 339 339 339 339 340 340 339 338 337 335 335 335 335 335 334 335 337 338 338 338 337 337 337 336 336 335 335 334 333 334 335 334 334 335 335 334 332 331 331 333 334 335 335 334 335 334 333 333 333 334 333 333 334 333 333 333 333 332 331 332 332 331
313 310 310 310 309 310 310 311 310 311 312 312 315 321 321 319 322 327 329 329 330 328 329 334 338 342 342 342 343 342 342 342 342 342 342 340 338 338 339 339 338 334 333 332 332 332 333 333 334 333 335 337 337 337 337 336 336 336 335 335 335 334 332 331 333 335 334 334 334 335 334 333 331 332 333 332 333 334 333 334 334 332 332 333 333 333 333 334 333 333 333 333 332 331 331 331 331
313 311 310 310 309 309 310 311 311 311 312 314 319 323 323 322 323 328 329 329 330 330 330 330 331 335 338 339 340 341 342 343 342 341 342 342 340 339 337 335 333 331 331 331 332 333 332 332 332 333 335 337 337 337 336 336 335 335 335 335 335 333 331 331 333 334 334 333 334 335 335 334 332 333 332 331 333 334 332 333 334 332 332 333 333 332 333 333 333 333 332 332 331 331 331 331 331
313 313 311 310 310 310 310 310 312 312 312 315 319 321 323 325 327 329 329 329 330 330 331 331 331 331 332 334 336 337 338 340 341 341 342 342 340 335 332 331 330 330 331 331 333 334 333 333 332 333 336 337 336 336 336 336 335 335 335 335 335 333 332 332 332 333 334 333 333 334 335 334 334 334 332 331 334 334 332 332 333 333 333 333 332 332 333 333 333 332 331 332 332 331 331 331 331
312 312 311 311 311 311 311 311 312 313 312 312 313 315 320 324 328 330 329 330 330 330 331 332 332 332 332 333 333 334 334 335 337 338 340 340 335 330 329 330 331 331 330 331 333 333 333 332 332 333 335 336 335 335 335 335 334 334 334 334 335 335 333 332 332 332 334 334 333 334 334 334 335 335 333 332 333 333 332 332 333 333 333 333 332 332 332 333 332 332 331 332 332 332 331 331 330
311 312 312 311 311 311 311 311 311 311 313 312 310 313 319 323 328 329 329 331 330 330 331 331 332 332 332 333 333 333 334 335 336 337 338 335 330 329 330 331 332 332 331 331 332 332 333 332 332 334 335 335 334 334 333 333 333 333 333 334 334 335 334 333 333 333 333 334 333 334 334 333 334 333 333 333 332 332 332 333 334 334 332 332 332 331 332 333 332 331 331 332 332 331 331 331 331
312 313 312 309 310 311 311 310 310 311 314 312 311 314 319 323 327 328 329 332 331 331 331 331 331 332 332 333 333 333 334 335 336 336 335 331 329 330 330 330 330 330 330 330 330 332 332 332 332 333 334 333 333 332 332 331 331 332 332 333 333 334 334 333 333 333 333 333 333 334 334 334 334 333 332 332 332 332 331 331 333 333 331 331 331 331 332 333 332 331 330 330 331 330 330 331 331
312 311 310 309 310 311 311 310 311 314 314 312 312 314 319 324 328 328 330 333 333 333 332 330 331 331 332 332 332 332 332 333 333 332 331 330 329 328 328 328 329 329 329 330 330 331 331 331 332 332 332 331 331 331 331 331 331 331 331 332 333 333 333 333 333 333 333 332 333 334 334 334 334 332 332 332 332 332 332 332 332 332 331 331 331 332 333 333 332 332 330 330 330 330 329 330 331
309 308 308 310 311 311 312 311 312 315 313 312 313 314 318 324 328 329 331 334 334 334 333 332 332 332 331 331 331 330 330 330 330 330 330 329 328 327 327 328 328 328 329 329 329 329 330 330 331 331 331 331 331 331 331 331 331 331 331 332 332 332 333 333 333 333 332 333 334 334 334 334 333 333 332 331 331 332 332 333 332 332 331 331 332 332 333 333 332 332 331 331 331 330 329 329 331
307 308 309 310 311 312 313 313 313 313 313 312 313 314 316 320 326 330 332 335 334 333 333 332 332 332 331 330 329 329 328 328 328 328 329 328 327 327 327 328 328 328 328 328 328 328 328 329 329 330 330 330 331 332 332 332 332 332 332 332 332 331 331 332 333 333 333 334 334 333 334 333 333 332 332 331 331 331 331 332 332 332 332 332 332 332 333 333 332 331 332 332 331 330 330 330 331
309 310 311 310 312 313 313 314 313 313 314 313 312 313 314 319 329 332 332 333 332 332 334 333 333 332 330 328 327 326 326 325 324 325 326 327 327 327 328 328 328 328 328 328 328 328 328 329 328 329 329 330 331 331 331 332 332 332 332 331 332 331 331 331 332 333 334 334 334 333 334 333 332 332 332 331 330 330 331 331 331 332 332 333 333 332 333 332 332 331 332 333 332 331 331 331 331
309 311 311 310 312 314 314 314 314 314 313 313 312 313 317 325 331 332 332 332 331 332 334 333 332 331 328 327 326 325 323 323 322 322 323 324 325 325 326 327 327 327 327 327 328 328 328 329 329 329 329 330 330 331 331 331 332 332 331 331 331 331 330 329 330 332 333 333 333 333 333 333 333 332 332 331 330 330 330 331 331 331 332 333 333 333 332 332 332 331 332 333 333 332 331 331 331
309 311 311 311 312 315 315 313 313 314 313 313 312 315 324 330 330 331 332 331 331 332 331 330 329 327 326 325 324 323 322 321 320 320 320 320 321 322 322 323 324 325 325 326 326 327 327 327 327 328 328 328 329 329 330 331 331 332 331 331 331 330 330 330 330 332 332 333 333 333 333 333 333 332 331 330 330 330 330 330 331 332 333 333 333 333 333 333 332 332 333 333 333 333 331 330 331
310 311 311 311 313 315 315 313 314 314 313 315 316 319 327 333 331 330 330 329 330 331 328 327 325 324 323 322 321 320 319 318 318 318 318 318 319 319 320 320 321 321 322 323 323 324 324 325 325 325 326 327 327 328 329 329 330 330 331 331 331 331 330 331 331 332 332 332 332 333 333 333 333 332 331 331 331 331 330 330 331 332 333 333 333 333 333 333 332 333 333 332 332 333 331 330 331
309 309 310 312 313 315 314 312 314 316 314 316 321 325 328 331 330 328 329 330 330 329 327 325 324 322 321 320 319 318 317 316 316 315 316 316 316 316 317 318 318 318 319 319 320 321 321 322 323 323 324 324 326 327 328 328 329 329 330 330 331 330 330 330 331 331 330 331 331 331 332 332 333 332 331 331 330 330 329 328 330 332 332 333 333 333 332 332 332 333 332 332 332 332 331 330 331
310 309 311 311 311 315 315 311 312 316 315 316 322 329 330 330 331 329 330 332 330 328 326 324 322 321 319 318 317 316 315 314 314 314 314 314 315 314 315 316 316 316 317 317 318 319 319 320 321 321 322 323 323 325 326 327 328 328 328 329 329 329 329 329 329 330 330 330 330 330 331 332 332 331 331 331 330 330 329 329 330 332 332 332 333 333 332 332 332 331 331 331 332 331 330 331 331
311 311 311 310 309 313 315 313 312 313 316 320 323 331 333 332 334 333 331 333 332 328 325 323 321 319 318 316 315 314 313 313 312 313 314 314 313 313 313 313 314 314 315 316 317 318 318 319 319 320 320 321 322 323 324 325 326 327 327 328 328 328 328 328 329 329 329 330 330 330 331 331 332 332 331 331 330 331 330 329 330 331 332 332 332 332 332 332 332 331 330 331 332 331 330 331 331
310 312 311 311 312 313 313 314 314 312 316 322 325 328 329 331 332 333 333 333 332 328 323 321 319 317 316 315 314 313 311 311 312 312 312 313 312 312 312 312 312 313 314 315 316 316 317 317 318 319 319 320 320 321 322 323 325 326 326 327 327 328 328 327 328 328 329 329 330 330 330 331 331 331 331 331 330 331 331 330 329 331 332 332 331 332 332 332 332 331 330 331 331 331 331 331 331
309 310 310 311 314 314 313 313 314 314 316 322 328 327 327 328 329 330 332 332 330 326 322 319 317 315 314 313 312 312 311 310 311 311 311 312 311 311 311 311 312 313 314 314 314 315 316 316 317 318 318 319 319 320 321 322 323 324 325 326 327 327 327 327 327 327 328 329 329 330 330 330 331 331 331 331 331 331 331 331 331 331 332 332 331 331 332 332 332 331 331 330 329 329 330 331 331
310 311 312 312 312 311 313 313 311 313 317 322 327 328 326 324 324 327 331 331 327 323 320 318 315 314 313 311 311 311 310 310 310 309 310 311 311 310 311 311 312 312 312 312 313 314 314 315 316 316 317 318 319 319 320 321 322 323 324 326 327 327 327 327 327 327 328 328 329 330 329 329 330 330 330 331 331 331 331 331 332 332 332 332 331 331 332 331 331 331 331 330 328 327 329 330 330
312 313 312 313 314 312 312 313 310 312 316 320 324 326 324 322 323 327 330 329 324 320 318 316 314 313 312 310 310 310 310 310 309 308 309 310 310 309 310 310 310 310 310 311 312 312 313 314 314 315 316 317 318 318 319 320 321 322 323 325 326 326 326 327 328 327 327 327 328 329 329 329 329 330 330 331 331 331 331 331 332 331 331 331 332 332 332 331 331 331 331 330 329 329 329 329 329
Wind_Speed
5 5 5 4 3 2 1 2 1 1 0 2 1 1 2 3 2 3 4 4 3 2 2 3 2 2 1 1 3 3 3 2 2 1 1 3 8 14 14 17 22 22 21 22 24 23 21 23 24 23 22 22 23 24 25 25 24 25 25 24 24 23 22 20 20 20 20 20 21 22 22 21 21 22 23 24 24 23 22 22 21 22 21 19 20 20 20 20 21 21 21 20 20 19 19 20 19
5 6 5 4 3 1 1 1 1 1 1 3 2 2 1 1 1 3 4 5 3 2 2 3 3 2 2 2 4 4 4 5 5 4 4 7 14 14 13 18 21 21 21 22 24 23 20 21 23 22 22 22 23 24 24 24 24 24 23 22 21 20 20 20 20 20 21 20 20 22 22 21 21 22 22 22 24 23 22 22 21 21 21 20 20 19 19 19 19 19 19 19 18 17 17 17 15
6 6 5 4 3 2 1 0 1 1 2 4 2 3 0 1 3 3 2 4 5 5 3 3 1 1 3 3 2 0 4 5 5 5 5 10 13 11 14 18 20 21 20 21 23 22 20 20 22 21 21 22 23 23 23 23 23 22 20 19 20 20 20 20 20 20 20 20 20 20 20 20 20 21 20 22 23 22 22 22 22 21 20 20 19 19 18 18 18 17 17 16 16 16 16 14 13
6 5 3 2 1 1 2 0 1 2 3 2 2 2 3 3 3 3 2 4 6 6 3 4 1 1 3 0 2 2 5 5 5 6 5 8 10 13 15 17 20 19 18 19 21 20 19 21 22 21 21 22 23 23 23 23 22 21 19 19 20 19 19 20 19 19 20 20 20 19 20 20 19 19 20 22 22 21 22 22 21 20 20 20 19 18 18 17 17 16 16 16 16 16 15 13 13
6 5 4 1 1 0 1 1 1 3 4 2 1 0 2 3 1 2 4 6 7 6 4 2 1 1 1 3 3 2 4 3 5 6 6 7 11 16 15 18 19 18 18 18 19 19 19 22 22 22 22 22 23 23 23 23 22 21 20 20 19 18 19 20 20 19 20 20 19 19 20 20 19 18 20 21 21 21 21 22 21 21 21 20 19 18 18 17 16 16 16 17 16 15 14 14 14
6 5 5 3 1 1 1 1 2 3 3 2 2 1 2 3 2 4 6 8 5 4 5 5 1 1 2 3 4 4 4 1 3 4 6 9 14 16 15 18 18 18 18 17 18 18 20 23 22 22 22 22 23 22 22 22 21 21 21 20 19 19 19 20 20 19 19 19 19 19 19 19 19 18 19 19 20 21 21 21 20 21 20 19 18 17 17 16 15 15 16 16 15 15 15 15 16
6 4 3 3 2 1 2 2 3 3 2 4 4 3 0 2 3 5 7 6 1 2 2 4 3 2 2 2 3 4 6 5 2 2 7 12 16 17 17 18 17 18 18 18 18 17 20 22 22 22 21 22 23 22 22 22 21 21 21 21 20 19 19 20 20 19 19 19 19 19 19 19 19 19 18 18 18 19 20 19 18 20 19 18 17 16 16 15 15 15 14 14 14 15 16 16 16
4 2 1 1 2 1 1 1 2 2 1 4 5 7 7 5 4 6 7 3 1 1 3 5 4 3 3 1 1 3 6 7 4 4 9 14 17 18 17 18 19 18 17 18 18 18 21 22 22 22 22 22 22 22 22 22 21 21 21 21 19 18 18 19 20 19 19 19 19 19 18 17 17 17 17 17 17 18 18 17 18 19 17 17 17 16 16 16 16 14 13 13 14 15 15 16 15
3 2 1 1 1 0 1 1 2 3 3 5 7 10 10 7 5 8 8 5 3 3 5 6 3 2 5 3 2 3 5 7 5 7 11 14 18 18 17 17 18 18 18 18 18 19 21 21 22 22 22 21 21 22 22 22 21 20 20 20 20 19 18 19 19 19 19 18 19 18 17 16 16 16 16 16 16 17 16 16 18 18 16 16 16 16 16 16 15 13 12 12 14 14 15 15 15
2 2 1 1 2 2 3 2 1 2 4 6 8 11 10 7 7 9 9 5 3 4 4 4 1 1 6 3 3 2 3 4 6 9 11 14 17 17 16 16 17 19 18 18 18 19 20 21 21 22 21 20 21 21 21 21 21 21 22 21 21 20 19 20 21 20 19 18 19 19 17 16 16 16 17 16 15 15 15 16 17 16 15 15 15 15 16 15 14 11 11 12 12 13 14 14 14
1 1 1 1 2 3 3 3 3 4 5 5 8 9 8 6 6 7 9 5 2 3 5 3 2 5 6 2 2 2 2 4 7 9 11 15 16 16 17 15 16 17 18 19 18 18 20 19 19 20 19 19 20 21 21 21 21 21 22 22 20 19 19 20 21 21 19 18 19 19 17 16 17 17 17 16 14 14 14 15 15 15 15 14 14 15 15 14 12 11 10 10 11 13 13 14 14
1 2 1 2 2 2 1 2 4 5 6 5 5 3 1 3 5 5 7 5 3 5 5 3 3 5 5 3 2 3 4 5 8 10 12 15 16 16 17 15 15 16 17 19 18 18 20 19 18 18 17 18 20 21 20 20 21 22 22 21 20 19 18 19 21 21 20 18 18 18 17 18 18 17 16 15 13 13 13 14 14 16 16 15 15 15 15 13 12 11 10 9 10 12 13 13 13
1 2 2 2 1 1 1 2 3 4 4 2 3 3 2 3 5 4 5 4 5 6 4 4 5 3 3 3 2 4 5 6 9 11 13 15 16 16 16 16 15 16 17 18 18 18 20 19 18 17 17 18 20 20 20 20 21 21 21 21 19 18 18 19 20 20 20 19 18 17 17 18 18 16 15 14 12 12 13 13 14 16 17 16 16 16 15 14 13 12 10 9 10 11 13 13 13
1 2 2 2 0 1 2 2 2 3 2 1 1 5 5 2 3 3 6 6 5 3 3 5 4 2 2 3 2 4 7 8 10 12 14 16 16 16 16 15 15 17 18 18 18 19 19 19 18 18 17 17 18 18 18 19 20 20 20 20 19 18 17 18 18 18 19 18 18 17 17 18 17 16 15 14 12 11 12 13 14 16 18 17 16 16 15 15 14 12 10 9 9 10 12 14 13
1 1 1 2 1 1 3 2 1 1 1 1 1 5 5 1 2 2 2 3 4 2 3 5 2 0 2 3 3 6 11 12 12 14 16 15 15 15 15 15 16 17 18 18 18 18 19 19 18 18 17 17 17 17 17 17 18 19 18 18 18 17 17 17 17 17 17 17 17 17 18 18 17 16 14 14 13 10 11 13 13 14 17 18 17 17 16 15 14 13 11 9 10 10 12 14 13
1 1 1 1 2 2 3 3 1 1 1 1 1 5 4 2 2 0 3 1 5 3 1 4 4 2 0 1 2 11 17 16 15 15 16 15 14 14 14 15 16 17 17 18 18 17 18 18 18 17 17 17 16 16 16 16 17 17 16 17 17 17 17 16 16 16 17 17 16 16 16 17 17 16 14 13 12 11 12 12 12 13 15 17 18 18 17 15 14 13 11 10 10 11 13 15 13
1 1 2 2 3 3 4 4 3 1 1 2 3 7 5 2 2 1 1 2 6 5 4 4 4 3 1 2 7 18 21 18 18 17 17 17 15 14 14 14 15 16 16 17 16 17 17 17 17 16 17 17 16 16 16 17 17 16 15 15 16 16 16 15 15 16 16 15 15 15 15 15 15 14 13 12 12 12 13 13 12 11 13 17 18 18 17 15 14 13 11 11 11 12 14 14 13
2 2 2 3 3 3 4 5 4 0 3 4 6 7 5 3 3 2 1 5 5 5 5 4 5 5 3 5 12 20 21 20 19 18 18 17 15 15 14 14 15 15 16 16 15 16 16 17 17 15 16 16 16 17 16 17 17 17 15 15 16 16 16 16 15 16 15 15 16 15 14 14 14 13 13 12 12 13 14 13 12 11 12 15 18 19 18 16 14 13 12 12 13 13 14 15 13
3 2 3 5 4 2 3 3 2 2 4 6 8 5 4 4 2 1 1 3 3 4 4 3 4 5 6 9 15 18 20 21 19 18 17 15 15 15 15 14 15 15 16 16 16 16 15 17 17 16 17 17 17 17 16 17 18 17 16 15 15 16 16 15 15 16 15 16 16 15 14 14 14 13 13 13 13 14 14 14 13 12 12 14 17 18 17 16 14 13 12 13 13 14 15 15 14
3 2 4 5 4 3 3 3 5 4 4 7 8 4 3 4 1 1 1 4 3 4 3 3 3 5 7 11 15 17 19 19 18 17 15 15 15 15 16 15 15 15 15 16 16 16 15 16 17 16 17 18 18 17 17 17 17 16 15 15 15 16 16 15 16 16 16 16 16 15 14 14 14 13 14 14 14 14 14 14 13 13 13 14 15 17 17 16 14 13 12 13 14 14 15 15 15
3 3 5 3 2 4 4 5 6 4 2 4 5 6 5 3 2 2 4 5 2 4 4 4 5 10 12 12 15 17 18 18 17 16 15 15 15 15 15 15 16 15 15 14 15 16 15 16 17 17 18 18 18 18 17 17 17 15 14 14 14 15 16 16 16 16 16 15 15 15 15 14 13 11 13 13 12 13 13 12 12 12 14 14 14 15 16 16 15 14 12 12 14 14 14 15 15
3 3 4 3 3 4 4 3 4 2 2 2 4 7 5 3 2 3 6 3 1 2 5 4 5 12 15 15 16 16 16 16 16 16 15 15 15 16 15 15 16 15 15 14 14 15 16 17 18 18 18 19 18 17 17 16 17 16 14 14 14 15 15 15 16 16 16 15 14 15 15 14 12 11 12 12 11 12 11 11 10 11 14 14 13 14 15 16 15 14 13 12 13 14 14 14 14
4 3 2 5 5 5 3 1 3 3 2 3 3 4 3 4 4 1 4 3 3 5 5 3 6 12 14 15 16 15 15 15 16 16 16 16 16 16 16 16 16 16 16 14 14 15 16 17 18 19 18 19 19 18 17 17 17 16 15 15 15 15 15 15 16 16 16 15 15 15 16 15 13 12 12 11 11 11 11 10 9 10 14 15 13 13 15 16 16 14 13 12 12 14 15 14 14
5 4 3 5 5 7 5 4 4 2 3 4 3 2 2 4 2 1 2 3 4 3 1 6 9 12 13 13 13 13 14 14 15 16 15 16 16 17 16 15 16 16 16 15 15 16 18 18 19 19 19 19 19 19 18 17 16 16 16 15 15 16 15 15 16 15 15 15 15 16 16 16 14 13 12 11 11 11 11 11 10 9 12 14 14 13 14 15 15 14 13 12 11 13 14 14 14
7 7 3 3 4 5 5 6 6 3 4 4 4 2 4 5 2 2 1 3 2 3 6 9 10 11 11 11 12 12 12 13 15 15 14 14 16 17 16 15 15 16 17 17 17 17 18 19 19 20 19 19 19 19 18 18 17 16 16 15 15 16 15 16 15 15 15 15 16 16 16 16 15 14 13 11 11 11 11 13 13 10 9 11 13 13 13 14 15 15 13 12 11 11 13 14 14
7 9 4 5 5 3 3 6 5 2 2 4 5 2 3 3 1 2 1 2 3 5 7 8 9 10 10 10 11 11 11 13 14 15 15 14 15 17 17 16 16 17 18 18 19 18 18 19 20 19 19 19 19 19 18 19 18 16 16 15 14 14 15 15 15 15 15 15 15 16 16 16 15 14 12 11 11 10 11 13 13 11 9 10 12 13 13 13 14 14 13 12 10 10 11 12 13
5 9 6 8 6 3 3 5 4 2 3 6 6 1 3 2 2 2 3 4 5 6 7 7 7 8 9 9 9 10 10 12 14 15 14 14 15 16 17 17 17 17 18 19 20 19 19 20 19 18 19 19 21 20 18 19 18 15 16 16 14 13 15 15 14 14 14 15 15 16 17 16 16 13 11 11 11 11 10 11 11 11 10 10 11 13 13 12 13 13 13 12 11 9 10 10 11
4 7 5 7 5 4 5 6 5 3 3 4 5 2 2 3 3 1 4 8 6 6 7 6 6 6 8 9 8 8 9 11 13 14 14 14 15 15 16 16 17 17 18 19 19 18 21 21 19 19 20 20 20 19 18 19 17 14 16 17 15 14 16 15 13 14 15 15 15 17 17 17 18 14 11 11 11 11 10 10 10 11 12 11 12 13 13 12 12 12 12 12 11 9 9 9 9
4 5 3 4 2 5 7 4 2 2 2 2 5 3 1 3 3 2 4 9 7 6 7 6 6 5 6 8 8 7 9 11 12 13 13 13 13 15 16 15 16 16 16 16 16 17 19 20 20 20 21 21 20 19 18 18 16 15 16 16 16 15 16 15 14 15 16 16 17 18 17 16 16 15 12 11 11 11 10 10 10 11 12 11 11 13 13 13 11 10 10 11 10 9 8 9 9
3 4 3 3 2 4 3 0 1 3 2 2 5 3 2 3 1 3 6 10 9 7 6 6 5 5 6 7 7 7 9 10 11 12 13 13 12 15 17 15 16 16 13 13 15 16 16 18 20 19 20 20 20 19 18 17 17 16 16 16 16 16 17 16 15 16 17 17 18 19 17 16 15 14 13 11 11 12 11 11 10 11 11 10 11 13 14 13 11 10 10 10 10 9 8 8 8
3 4 2 1 2 3 1 2 2 4 1 1 5 3 2 3 1 3 7 10 10 9 7 7 6 6 6 6 7 8 8 9 10 11 12 14 16 17 17 16 17 16 13 14 15 15 15 17 18 18 19 19 18 18 17 17 17 17 17 16 16 17 17 17 16 16 16 16 18 19 17 16 15 15 14 13 12 12 13 12 12 12 12 11 12 14 14 13 11 10 10 10 10 9 8 8 7
1 4 3 1 2 2 2 1 3 2 2 1 4 3 1 3 2 2 5 9 7 7 8 8 7 7 6 5 6 7 7 8 10 11 12 16 19 20 20 19 20 20 18 17 14 13 14 15 17 15 16 17 17 17 17 18 18 17 19 18 18 18 17 18 17 15 15 15 18 19 17 17 17 16 15 14 14 13 13 13 13 13 12 11 12 13 13 12 11 11 10 9 9 9 8 7 7
1 3 3 3 4 2 1 2 1 1 1 1 2 2 2 1 3 4 5 10 6 5 7 8 8 7 7 5 5 6 7 7 9 12 14 15 18 19 20 20 21 22 23 21 15 13 14 14 15 14 16 18 17 17 17 18 18 18 20 19 19 19 18 18 17 15 15 15 17 17 17 18 17 16 15 14 14 13 13 13 13 13 12 11 11 11 12 12 11 12 11 9 9 10 9 8 8
2 1 2 2 3 3 1 2 1 2 2 3 0 1 3 1 5 6 4 7 6 5 5 8 8 7 7 5 4 5 6 7 8 11 14 15 16 18 19 20 22 23 23 21 15 13 12 12 13 14 17 20 18 18 20 20 18 17 19 18 19 21 18 16 16 17 17 16 17 17 17 18 17 15 13 13 13 13 13 13 12 13 13 12 12 11 10 12 12 13 13 11 10 11 10 8 8
4 4 3 2 2 2 1 1 0 2 1 4 4 3 3 2 6 7 5 2 3 3 2 5 7 6 7 6 4 3 4 6 7 8 12 14 15 17 18 19 21 23 20 17 15 13 12 10 12 14 17 19 18 19 20 20 18 17 18 16 16 19 18 16 17 18 17 16 19 20 18 16 14 12 11 10 11 13 13 12 11 12 14 15 14 12 11 13 14 14 13 12 10 9 9 8 8
6 5 4 5 4 2 1 1 1 1 1 4 4 2 2 5 7 8 8 5 0 2 1 3 6 6 6 5 4 2 5 7 6 7 10 12 13 14 17 19 19 19 15 14 14 14 11 9 10 12 13 15 16 18 18 17 17 18 19 18 17 19 21 20 19 17 16 15 17 18 17 14 10 11 13 12 12 14 13 12 12 11 13 16 15 14 13 14 15 15 13 12 11 9 7 8 9
6 5 4 4 4 3 1 1 1 1 1 3 4 5 7 7 8 10 8 4 3 1 1 2 4 5 5 6 5 5 7 5 5 6 7 9 10 11 14 14 13 12 11 12 11 9 8 6 6 7 8 12 15 16 16 16 16 15 14 16 18 19 20 19 17 17 17 16 14 15 15 12 11 15 17 15 15 15 13 12 13 12 13 15 16 15 13 13 14 14 12 11 11 11 10 10 11
5 5 4 3 3 3 2 1 1 1 1 2 6 9 8 7 8 10 9 7 7 4 1 1 3 6 7 7 7 6 6 2 3 6 5 6 8 8 8 8 7 7 7 7 9 12 11 9 5 1 5 10 13 15 15 13 13 12 10 12 15 16 16 16 17 17 16 15 14 14 12 11 14 17 14 12 14 15 14 15 15 14 13 14 15 16 14 13 13 12 11 10 10 12 11 11 14
3 3 3 3 2 1 1 1 2 1 1 2 7 10 7 5 6 9 10 8 7 6 3 2 1 4 6 7 8 7 6 4 6 8 6 4 4 4 3 4 6 11 15 18 21 20 15 11 6 6 9 11 12 13 12 9 11 13 14 14 16 16 15 15 16 16 14 13 14 13 11 12 17 17 12 11 13 14 16 17 17 15 13 13 14 16 16 15 15 14 13 11 11 11 10 13 16
2 3 3 3 2 2 3 2 2 2 3 3 9 10 5 4 3 6 9 8 7 7 7 7 5 1 2 3 4 5 7 8 9 10 7 2 3 6 9 15 20 23 21 19 16 12 8 7 8 7 7 10 10 10 10 10 13 15 15 14 13 12 11 11 12 14 13 13 14 12 11 15 19 16 12 12 14 15 16 17 18 16 15 15 15 16 18 17 17 16 15 14 13 13 12 14 15
1 3 4 3 3 3 2 2 1 1 3 2 8 7 4 4 3 5 7 7 8 8 8 9 8 6 6 5 4 4 5 7 7 8 6 3 10 16 22 24 23 20 15 10 5 6 8 6 5 4 5 8 9 9 11 12 14 13 12 11 9 7 7 7 9 12 12 13 15 12 12 16 18 15 11 12 15 15 16 17 18 18 17 17 16 16 17 18 18 18 18 17 15 16 15 14 14
2 4 6 5 5 4 1 2 1 2 3 2 2 3 3 3 4 6 7 7 9 8 9 10 9 8 8 7 7 7 7 8 7 7 6 9 13 17 21 19 13 12 10 4 3 3 6 6 4 5 6 8 10 10 11 11 11 8 7 8 8 6 5 6 8 11 12 14 16 14 14 16 17 14 12 12 13 14 16 18 18 18 18 20 20 18 17 18 18 19 21 19 16 16 14 14 15
3 4 6 5 4 4 4 3 2 1 3 1 1 1 3 1 3 7 6 6 9 8 9 10 9 9 8 8 8 8 9 9 8 8 9 11 12 11 13 12 9 9 9 6 5 5 4 4 3 4 5 7 8 8 7 7 6 5 6 7 7 6 6 6 7 9 12 15 17 16 16 18 16 11 10 11 13 14 16 17 17 18 19 22 23 20 18 18 18 19 21 20 18 17 14 13 16
2 3 8 8 6 6 6 4 3 1 1 2 1 1 3 3 2 6 4 5 9 9 9 9 8 9 9 9 10 10 11 11 10 10 11 11 10 10 11 11 10 10 10 6 7 6 6 5 5 4 5 5 4 4 4 4 3 4 7 9 9 9 10 11 11 11 14 16 17 16 16 17 14 10 11 14 15 15 16 16 16 17 20 25 24 21 18 16 17 20 22 23 22 20 16 13 14
2 3 7 7 6 5 4 4 3 0 1 3 2 1 2 3 1 4 2 5 9 8 8 9 9 9 9 10 11 11 12 12 12 11 11 10 11 12 12 13 13 14 15 12 9 10 9 8 9 8 5 2 3 3 2 2 3 6 9 11 12 13 14 15 14 14 14 13 13 16 16 15 14 13 14 15 16 16 17 17 17 17 21 24 22 20 18 16 18 21 23 24 23 21 19 15 14
2 6 6 4 3 2 1 2 3 2 3 4 3 2 2 3 0 2 3 5 6 6 7 9 9 9 9 10 11 11 11 11 12 12 12 12 12 12 13 14 14 14 16 16 15 15 12 10 9 9 7 5 5 3 2 2 2 6 8 9 10 14 15 13 11 10 9 9 12 15 16 15 14 12 11 12 15 16 17 18 18 20 21 20 20 20 18 17 20 21 22 23 22 21 19 16 15
7 9 7 5 3 2 1 1 1 3 4 2 0 3 1 3 1 1 2 3 4 4 5 7 8 10 10 10 10 11 11 10 11 12 13 15 16 14 14 15 15 14 13 13 14 15 12 12 11 10 8 7 6 5 4 5 5 5 7 9 11 16 16 11 9 10 10 10 12 13 14 14 14 12 11 13 16 16 18 19 19 21 20 19 19 18 16 18 21 20 19 21 21 19 16 15 15
6 5 5 5 3 1 2 1 1 4 4 1 1 3 1 2 1 1 1 3 4 3 4 6 8 10 10 10 10 10 10 10 11 11 11 13 16 16 17 16 16 15 14 13 13 12 10 10 10 8 7 7 6 5 6 7 9 8 8 9 12 16 17 13 13 14 14 13 13 12 12 13 13 13 12 15 17 19 20 20 20 21 20 19 19 16 14 17 20 19 18 19 20 19 15 14 15
4 3 6 7 4 3 4 3 3 4 2 2 1 2 1 2 2 3 4 4 4 3 5 7 9 10 10 10 10 9 10 11 11 11 10 11 13 14 16 18 18 17 17 15 13 12 10 10 10 9 7 7 6 6 6 8 9 9 11 12 14 15 16 17 17 17 15 15 14 13 13 12 13 14 14 15 17 19 21 20 20 18 19 19 18 15 14 15 16 16 17 19 20 20 17 15 14
6 6 8 8 5 5 6 3 2 2 2 2 2 2 2 2 1 3 4 4 3 5 7 9 10 10 10 10 9 9 11 11 10 10 9 10 12 14 15 17 19 18 18 17 16 15 13 12 12 12 10 9 8 8 8 9 9 9 10 13 14 14 15 16 16 15 14 16 16 14 14 13 12 13 14 16 17 18 20 20 18 17 19 19 16 14 14 13 13 13 15 18 19 20 20 17 15
6 3 4 5 3 4 4 3 3 3 3 3 1 0 3 3 3 3 3 2 4 7 8 9 10 9 9 9 10 10 11 10 9 9 9 10 12 13 13 14 16 16 17 17 17 17 17 16 15 14 14 13 12 11 11 11 11 11 10 11 12 13 13 14 13 12 13 16 16 15 15 14 13 13 13 15 16 17 19 19 17 17 19 20 17 15 13 12 12 12 13 14 16 18 18 16 16
4 1 1 3 3 3 3 1 1 2 3 2 2 1 2 2 3 4 3 4 6 8 9 10 10 9 9 9 10 10 10 10 9 9 10 12 13 14 15 15 15 15 16 16 17 17 17 16 16 16 16 15 15 15 14 13 13 13 12 11 11 12 12 13 11 10 11 14 15 15 16 15 14 13 13 13 14 16 18 19 19 18 17 18 18 15 11 11 12 12 13 13 16 19 18 17 18
4 3 4 2 1 4 4 2 2 1 3 2 2 2 3 3 4 6 7 7 9 9 8 9 9 9 9 8 8 9 9 9 9 9 9 12 14 16 16 16 17 18 18 18 17 16 17 16 15 15 16 16 16 16 16 15 13 14 15 14 14 14 14 12 11 10 10 10 12 14 16 17 15 14 13 11 12 15 18 20 21 19 17 17 18 16 14 14 15 14 14 14 16 19 20 19 18
5 6 6 4 2 2 3 3 2 1 3 2 1 2 4 4 4 7 10 10 10 9 8 9 9 9 9 8 7 8 8 8 9 9 10 12 14 15 15 14 15 16 17 17 16 15 16 16 15 15 15 15 15 16 16 15 13 14 15 15 15 14 13 12 12 12 11 11 12 13 15 16 15 12 10 9 11 14 16 19 20 18 18 19 19 19 19 18 17 15 16 16 15 17 19 17 16
2 5 6 3 2 3 2 2 3 3 3 2 1 0 3 5 4 8 12 11 10 10 9 8 8 8 7 7 8 9 9 8 9 9 9 12 14 15 15 15 15 15 16 17 16 15 16 16 16 16 16 15 15 15 15 14 13 13 13 13 13 12 11 12 14 13 13 14 14 13 14 15 13 11 10 10 11 13 14 16 17 16 18 19 19 20 20 19 17 16 17 18 17 18 17 15 13
2 4 5 0 1 3 2 1 2 4 4 2 2 1 4 4 4 9 13 11 10 10 9 8 7 7 7 7 8 8 8 8 9 8 8 11 13 15 16 16 16 16 16 16 16 15 16 16 15 16 16 16 16 16 15 14 14 13 13 12 11 12 13 14 15 15 14 14 14 13 15 15 13 11 12 11 11 12 13 14 15 16 18 19 19 19 20 19 19 18 18 17 17 18 16 13 12
4 6 6 2 1 1 2 2 2 2 4 4 3 2 4 1 2 8 13 11 10 11 10 8 6 7 7 7 7 7 8 9 9 8 8 11 14 15 16 16 16 15 15 16 15 14 16 16 16 16 16 16 17 16 15 15 15 14 13 12 12 14 16 15 14 13 12 13 14 13 13 13 13 11 12 12 12 12 13 13 16 19 20 20 20 20 21 21 20 19 17 15 15 16 14 13 14
6 7 6 4 4 4 5 3 1 2 2 3 4 3 3 1 1 6 10 10 10 11 12 10 7 7 8 8 8 8 8 8 8 8 9 12 14 15 15 15 15 14 15 16 16 15 17 18 17 17 16 16 16 16 14 15 15 15 14 13 13 14 16 16 13 12 11 12 13 12 10 11 12 12 12 12 12 12 13 13 15 18 19 20 21 21 21 21 19 18 17 16 15 13 12 14 15
Wind_Direction
145 129 109 105 64 94 52 21 219 62 177 253 225 241 221 209 328 286 283 303 286 13 312 314 12 285 251 86 139 127 37 92 59 31 100 56 140 139 135 141 145 145 145 147 150 151 152 155 154 153 152 152 152 150 148 146 146 146 146 145 143 140 137 133 127 128 128 127 126 125 124 125 126 127 127 125 125 125 123 122 121 118 116 114 111 109 107 105 105 107 108 108 106 108 109 107 102
139 125 103 107 65 77 149 1 248 71 223 251 214 203 1 124 228 251 295 333 314 338 351 24 72 24 336 56 104 129 73 41 43 66 74 113 134 129 133 143 146 145 144 148 151 149 149 154 156 154 153 153 152 149 146 145 145 145 144 141 137 133 131 129 126 128 126 125 126 125 125 126 128 129 128 127 126 126 126 125 123 121 120 118 115 114 112 109 107 108 106 108 107 108 112 108 96
133 120 107 115 65 22 122 11 239 151 222 244 238 198 142 179 192 218 283 315 305 292 292 316 286 6 293 180 109 118 79 52 75 91 95 126 135 133 141 144 145 145 144 149 151 149 147 152 156 154 153 153 152 149 146 144 144 143 139 134 130 129 128 127 126 126 126 127 126 124 124 123 125 127 128 128 126 127 128 125 124 124 123 121 119 117 115 113 110 108 106 107 107 110 113 104 91
130 113 109 129 92 41 131 130 202 182 219 233 274 195 195 201 187 218 257 294 294 280 272 302 275 50 310 124 27 358 73 66 77 90 118 127 140 142 144 146 145 145 146 150 151 149 147 151 155 153 153 153 152 150 147 146 145 142 136 131 129 129 128 128 128 128 129 128 126 126 126 124 124 125 128 129 127 129 129 127 125 127 128 124 121 120 116 115 113 111 110 110 109 111 108 98 92
125 102 77 27 172 128 132 118 125 202 218 180 316 120 187 208 194 265 281 296 285 269 235 227 357 58 10 35 7 358 59 79 80 81 115 114 139 145 145 147 145 146 146 149 150 147 147 152 154 154 154 154 153 151 148 147 145 140 133 131 131 131 131 131 131 131 130 129 129 130 127 125 123 123 128 131 130 132 131 129 130 132 132 127 126 125 121 119 115 114 115 112 108 106 101 97 92
125 99 60 57 111 37 161 205 185 221 236 177 261 353 113 207 270 287 293 305 290 266 222 197 291 34 104 47 27 33 22 22 87 75 116 127 145 147 145 146 144 145 144 147 149 147 151 154 155 153 154 155 154 152 149 146 143 139 134 133 133 133 134 134 134 133 133 132 131 130 128 125 123 122 125 130 133 134 135 136 136 136 134 129 128 127 124 120 118 120 117 110 104 102 100 96 91
141 126 50 84 101 341 208 235 218 235 237 182 247 294 45 222 254 286 301 314 280 147 192 183 169 137 103 90 80 56 22 25 56 82 126 139 147 148 147 147 144 144 146 148 147 149 156 156 154 154 152 152 153 152 149 146 142 140 139 136 135 135 136 136 136 136 135 134 133 132 129 127 125 125 126 129 132 134 137 139 140 141 136 130 129 127 125 123 125 125 116 107 102 99 98 95 92
131 121 342 175 131 356 212 246 236 234 218 200 259 272 273 269 251 279 287 286 256 169 174 159 166 171 111 116 115 73 30 38 58 108 135 144 150 151 148 148 145 144 148 149 147 152 158 156 155 153 150 151 153 151 149 148 144 143 142 138 137 136 135 136 138 138 137 136 135 134 131 129 130 129 130 133 134 133 133 136 142 143 138 133 131 130 129 129 130 126 115 104 99 96 96 98 95
84 42 199 205 170 213 215 245 251 230 247 254 264 256 262 270 250 260 258 246 251 238 187 158 182 211 128 114 93 98 34 40 77 120 141 147 152 152 147 150 146 145 149 149 149 153 158 156 155 152 149 153 155 153 152 150 144 143 142 138 138 138 138 139 140 140 139 139 138 135 132 131 134 132 131 133 135 133 132 138 142 143 141 138 135 133 132 132 132 126 114 102 96 96 99 103 100
53 10 163 146 175 223 233 235 259 233 255 261 267 263 262 260 242 244 249 252 240 203 169 143 151 131 125 119 90 100 34 57 100 123 144 148 152 151 145 149 148 147 149 149 150 153 156 156 155 152 151 153 155 154 152 149 145 144 142 139 141 144 144 144 143 142 142 142 141 139 135 136 139 135 130 129 134 136 138 141 142 143 143 139 135 133 134 136 137 128 114 104 98 99 104 108 105
122 49 152 186 191 228 233 240 253 261 275 277 278 269 261 255 232 240 242 235 237 180 160 165 163 122 113 109 87 75 75 108 115 122 144 150 150 149 143 146 150 150 147 147 149 151 153 155 155 151 151 153 154 153 151 148 145 143 142 141 145 147 147 147 146 145 145 145 146 144 141 141 141 136 129 129 137 141 141 139 139 142 141 139 137 138 141 144 140 129 117 108 101 101 105 110 106
185 133 175 198 208 228 221 257 264 283 282 284 294 288 285 236 205 229 230 209 187 164 167 189 159 127 119 126 123 116 115 126 124 124 141 149 147 145 143 144 147 149 146 147 147 149 151 153 154 152 152 152 153 152 149 148 145 143 143 143 145 146 146 148 148 148 147 147 150 150 145 141 140 137 134 136 140 139 139 141 143 146 146 145 144 146 148 147 142 132 121 110 102 100 105 110 108
194 145 168 186 219 191 164 262 270 297 290 290 293 312 336 234 225 230 198 163 162 156 157 158 145 127 116 118 119 148 147 139 135 130 139 147 146 143 143 142 145 146 146 147 147 152 153 151 152 155 154 149 150 150 147 148 147 146 145 144 145 145 146 147 150 151 150 151 154 152 145 141 140 140 140 142 141 137 140 147 150 152 154 153 151 151 149 148 144 135 125 112 103 101 107 112 112
179 165 192 181 87 164 182 256 265 273 282 332 288 316 315 264 286 237 161 141 156 133 91 124 143 134 111 136 158 177 166 150 140 132 142 149 144 141 139 139 142 144 147 149 151 155 155 153 153 155 154 148 148 148 149 150 148 148 147 147 147 147 149 149 152 152 152 155 155 150 144 143 144 144 145 145 141 138 143 150 155 157 159 158 155 151 150 149 145 136 127 116 109 108 112 115 118
177 165 179 168 148 183 207 224 285 249 238 326 344 333 318 344 350 232 163 141 136 67 98 101 62 144 148 188 186 171 162 151 141 138 147 147 139 135 134 137 141 145 150 153 154 157 156 155 155 156 154 148 148 149 153 152 149 149 149 149 150 151 153 153 154 153 154 154 154 152 147 147 147 146 149 146 141 142 146 150 155 158 160 160 156 154 153 150 144 136 130 123 118 118 117 119 123
164 138 121 193 183 193 202 184 179 244 221 241 334 345 336 39 29 279 316 290 128 84 83 73 20 358 176 303 117 144 152 150 145 144 144 138 133 132 134 139 142 146 153 155 157 159 159 159 157 158 157 153 151 151 152 152 152 151 152 154 156 157 156 157 157 155 155 154 156 155 150 149 148 149 153 151 146 146 150 152 153 156 159 160 159 157 155 151 144 136 132 130 125 124 124 125 126
142 172 180 191 192 206 193 184 182 193 303 278 336 356 346 359 55 107 1 86 120 93 58 59 35 15 354 37 117 139 145 147 145 143 140 136 136 134 135 140 144 151 154 155 158 160 163 163 159 159 160 158 154 151 150 154 156 154 155 160 162 163 161 160 159 157 155 155 160 156 151 151 150 153 156 156 152 150 154 156 154 154 157 159 159 159 157 152 145 138 136 134 130 131 129 128 128
183 178 193 201 197 208 192 193 186 205 323 319 332 347 335 325 101 132 83 77 89 96 78 71 62 51 65 101 128 139 142 146 146 146 145 143 143 140 141 145 147 153 156 157 159 163 166 164 162 161 160 161 158 154 153 157 160 160 163 167 167 168 165 163 162 161 160 161 163 160 158 157 156 160 161 161 157 155 158 159 157 153 155 158 159 160 158 153 147 141 138 136 135 134 132 131 132
192 143 203 213 196 213 197 199 198 245 307 322 323 331 330 318 112 138 287 102 121 132 105 109 95 77 100 122 134 140 143 148 151 152 150 148 148 148 149 150 150 152 158 161 163 165 168 167 166 165 164 165 164 160 159 162 166 168 170 172 172 172 170 168 168 168 169 169 169 168 168 166 163 166 167 166 161 157 160 162 161 155 152 155 159 160 157 155 151 146 141 137 136 136 136 137 138
192 171 217 221 204 248 230 215 234 234 290 314 315 325 336 321 341 318 225 151 191 196 147 150 169 148 137 138 142 146 148 150 153 154 152 150 150 152 154 153 154 155 159 163 166 167 167 169 169 171 171 170 169 166 165 168 172 175 176 177 177 176 175 176 177 177 177 176 177 175 173 170 168 171 172 167 162 160 161 165 165 159 153 154 160 161 158 158 155 150 144 138 138 140 141 141 142
177 197 225 217 173 251 230 210 239 237 260 284 310 319 328 345 338 272 186 160 200 230 211 201 193 171 158 154 153 153 152 151 154 154 150 150 151 154 157 156 156 156 160 163 167 169 168 173 175 177 177 175 175 172 172 175 178 180 181 182 180 179 181 182 183 184 183 183 181 179 177 173 170 172 174 170 167 166 165 167 169 164 156 155 162 165 161 161 158 154 148 141 142 144 145 144 144
175 202 241 228 173 248 244 211 231 188 187 240 311 309 321 336 303 226 198 178 112 267 253 233 185 166 162 160 158 157 157 154 156 156 151 152 156 156 155 157 156 155 160 165 168 172 174 177 180 181 181 181 180 179 180 182 184 185 185 184 182 182 184 183 187 188 187 187 185 184 181 174 171 174 177 177 176 176 174 172 174 168 161 158 160 166 166 164 163 159 153 148 145 145 146 144 143
209 201 244 238 216 239 262 242 207 157 191 258 288 296 333 318 313 206 222 297 339 308 285 205 153 155 157 158 159 161 161 158 157 157 155 157 159 159 157 154 157 159 162 169 173 176 180 183 185 185 185 185 185 186 186 187 189 190 188 186 184 184 186 186 188 190 189 190 190 188 184 179 176 178 180 183 182 182 183 177 176 174 166 163 160 164 168 168 166 162 158 153 147 145 146 145 144
228 218 228 235 219 234 253 268 245 206 237 249 250 286 298 268 301 141 218 323 331 321 74 129 135 146 150 154 160 163 162 157 157 157 157 160 162 162 162 159 161 166 167 173 178 182 186 187 189 188 188 188 189 190 189 191 192 193 192 189 189 188 187 189 190 190 190 193 193 190 188 185 182 181 182 187 187 188 190 182 177 179 172 168 165 163 166 169 167 162 161 158 151 148 148 146 147
222 222 227 239 223 232 247 266 270 260 248 232 219 227 222 223 184 155 196 6 11 91 107 119 130 144 146 153 159 162 161 156 155 157 157 160 163 164 169 170 168 173 177 180 184 189 191 191 192 191 191 191 191 191 192 194 194 196 195 191 192 192 191 191 191 191 192 194 194 191 190 190 188 185 183 187 191 191 195 188 179 179 176 173 171 167 165 167 166 161 161 161 156 151 151 150 151
210 210 214 239 241 260 262 269 271 269 255 203 205 186 181 223 171 157 115 75 138 123 114 125 136 146 148 154 158 158 160 157 157 159 159 157 162 168 175 180 179 183 186 188 192 193 194 196 197 195 193 193 193 193 194 196 197 198 198 195 193 194 197 195 192 193 194 197 195 193 195 196 196 190 184 187 189 192 197 194 186 181 180 181 180 176 170 166 165 163 161 163 159 156 156 154 153
184 198 221 240 254 308 272 270 273 289 267 216 217 167 127 204 192 163 119 132 153 128 122 136 145 151 155 158 157 158 157 158 160 160 158 155 164 175 180 186 189 191 193 195 197 197 198 199 199 197 196 198 198 195 196 199 200 199 199 199 196 197 202 200 197 197 197 200 201 200 199 199 202 197 188 188 186 190 196 194 191 186 186 191 191 187 179 172 168 167 166 166 164 164 162 157 157
166 181 215 239 263 279 247 264 273 275 269 209 198 180 140 184 177 104 123 145 155 133 134 150 156 159 166 163 158 160 157 159 162 161 161 160 171 182 184 190 193 195 199 200 199 200 202 201 199 201 201 202 203 199 198 202 202 203 202 202 202 203 206 204 201 203 202 203 205 205 203 201 205 202 194 193 188 190 192 190 189 190 194 199 199 194 189 183 178 174 172 169 171 172 167 160 162
163 170 206 227 255 253 232 253 266 224 254 169 174 181 167 193 156 90 134 149 150 137 143 159 170 177 176 170 164 163 163 164 165 167 169 168 176 188 193 197 196 198 204 205 204 203 204 203 202 205 205 203 205 204 202 204 206 206 205 206 207 207 209 209 207 208 207 207 208 209 209 205 205 204 201 198 194 193 192 189 187 190 196 200 202 198 194 190 187 183 176 172 175 176 174 169 167
158 163 229 231 223 239 218 88 155 200 236 197 205 210 193 228 184 128 156 156 149 140 156 172 181 194 187 179 173 166 167 169 173 174 169 168 177 192 201 206 205 206 208 206 208 207 204 205 205 206 207 206 207 208 207 209 210 211 209 207 210 211 211 214 214 213 212 212 212 209 209 210 209 208 208 205 201 200 198 195 191 189 193 198 202 201 197 193 191 189 182 177 176 175 178 177 171
158 152 200 237 212 217 96 67 178 189 179 229 233 218 186 254 316 122 162 169 158 149 170 184 188 201 199 190 180 171 170 173 182 178 168 173 183 195 204 210 212 211 210 210 211 210 207 207 209 207 206 208 209 210 212 214 214 217 217 212 213 213 210 216 218 216 216 215 216 212 211 215 216 216 216 212 208 204 201 200 195 192 190 192 199 202 199 195 192 191 188 183 176 173 176 173 169
126 173 174 150 206 214 28 94 195 205 69 36 237 203 196 276 322 45 167 185 175 158 174 190 199 204 203 197 185 171 166 172 184 185 182 185 190 199 209 214 217 216 216 218 212 208 210 210 211 209 208 208 208 211 214 218 219 221 221 219 222 218 212 218 221 219 221 220 219 217 215 218 221 224 224 221 219 211 204 203 198 195 193 189 193 198 200 198 195 191 187 186 181 173 168 165 166
83 216 173 144 194 205 52 112 204 288 127 132 259 185 146 279 337 15 153 180 188 172 180 199 209 210 212 213 193 167 160 172 188 195 193 191 193 203 216 223 225 224 224 223 217 211 213 211 209 209 212 211 211 212 215 219 222 223 224 225 227 223 216 220 222 221 225 226 224 221 219 220 222 226 227 229 231 221 212 212 205 201 199 192 193 195 198 200 197 193 186 184 188 181 169 166 166
152 204 146 137 197 198 174 139 51 351 170 169 195 225 191 326 357 22 114 170 194 189 190 210 214 214 216 227 215 172 162 188 202 205 196 192 199 206 216 228 230 231 230 227 224 218 216 211 206 206 210 213 215 218 219 221 226 229 233 233 229 227 223 222 221 221 226 228 225 223 221 222 227 234 235 234 237 232 222 221 215 210 209 202 200 201 201 202 200 199 193 183 185 185 178 175 173
162 166 154 141 171 190 184 157 73 9 61 151 165 225 229 351 3 23 33 20 213 208 231 227 227 228 224 235 240 185 179 211 218 214 200 197 206 209 213 223 228 231 232 229 227 224 222 211 203 207 210 213 217 220 222 225 230 234 237 240 235 230 229 226 222 221 226 227 226 225 223 226 235 241 241 235 238 241 233 227 223 218 216 209 208 211 209 205 200 198 197 186 179 180 183 182 175
160 164 162 148 151 178 200 201 281 339 100 149 170 201 65 28 5 3 357 359 187 226 301 248 236 238 239 246 257 239 221 230 230 220 208 205 211 212 214 218 225 230 229 229 228 224 222 212 207 210 209 215 219 222 225 227 228 229 230 232 231 230 232 230 226 226 228 230 231 229 227 231 240 242 244 243 242 243 234 230 233 223 215 212 215 219 215 210 203 198 196 187 174 169 177 182 175
133 129 137 137 154 168 177 253 307 280 191 122 107 84 61 38 15 1 350 22 61 330 258 230 224 225 235 240 244 245 238 237 232 220 202 204 213 215 219 221 224 229 235 242 245 249 252 240 216 202 201 216 224 225 226 224 221 221 224 223 223 229 235 232 230 234 235 237 239 234 232 235 246 253 251 248 247 240 226 225 233 223 211 214 220 224 220 213 203 196 191 183 177 170 166 177 177
119 125 130 134 177 171 133 96 307 265 189 90 95 90 68 41 28 15 8 37 40 2 291 200 207 211 218 224 230 241 248 245 235 231 196 189 212 212 217 232 243 265 297 319 352 0 359 13 23 326 226 223 225 226 226 224 224 231 248 247 239 241 245 239 235 241 244 245 244 238 236 237 246 254 248 245 253 241 224 221 225 221 215 220 223 222 222 215 199 193 187 177 179 178 170 175 174
116 128 144 154 174 192 132 69 315 314 75 130 110 94 73 43 34 31 29 37 40 27 21 28 220 213 220 226 226 234 247 248 248 254 241 205 218 233 263 330 11 30 33 38 39 32 24 13 334 267 244 232 227 230 235 251 257 258 263 262 260 256 255 250 242 247 252 250 250 245 242 243 249 252 234 231 247 239 228 221 218 222 223 227 226 218 219 216 201 198 199 188 178 177 175 179 179
123 148 175 167 158 203 175 142 312 13 36 136 120 98 75 57 52 49 41 42 52 53 54 45 41 26 301 266 242 242 252 255 255 256 256 254 358 17 44 58 63 67 64 56 42 17 351 309 272 250 237 239 242 246 254 264 260 258 254 250 261 263 263 267 255 253 258 257 260 257 250 252 259 257 227 221 244 245 235 225 221 225 228 233 231 217 214 214 206 202 205 200 180 172 173 182 187
165 191 192 177 176 221 182 121 223 81 54 130 127 109 76 39 29 44 40 47 55 54 60 54 47 41 24 16 0 333 308 296 282 271 277 19 51 65 80 81 75 75 77 76 57 330 312 293 259 236 233 248 264 265 259 256 249 253 257 254 268 272 264 274 268 264 266 264 267 265 258 262 270 268 240 229 247 249 239 231 230 228 229 236 234 220 212 211 209 206 208 205 190 179 173 177 190
189 217 208 199 186 202 179 106 174 141 123 169 145 131 110 30 24 40 30 45 55 54 61 57 53 49 39 33 18 6 1 352 343 334 358 56 76 86 91 89 82 73 65 56 83 33 331 313 276 245 241 254 266 264 258 256 251 255 268 267 271 266 250 259 267 271 272 271 271 268 265 268 269 263 246 236 240 240 235 235 234 229 228 235 234 223 215 213 209 207 209 202 191 189 175 171 186
195 203 193 197 178 183 188 155 173 171 136 121 310 204 140 111 36 30 20 53 60 58 65 60 55 51 43 39 28 22 19 13 15 16 39 71 83 87 84 84 86 70 45 345 339 39 23 332 296 277 275 266 263 263 264 262 253 251 259 260 260 250 238 247 262 268 269 273 274 268 264 264 259 247 240 242 238 232 227 228 234 234 229 232 232 224 217 216 211 207 208 200 195 195 181 175 187
186 178 174 179 180 195 198 173 185 228 108 102 281 227 137 137 76 24 12 81 67 54 59 56 53 49 43 42 37 37 37 34 36 40 58 75 79 79 75 68 57 44 39 6 340 17 42 44 32 359 314 283 284 291 280 266 253 244 241 237 233 230 229 235 240 242 250 262 270 267 261 257 250 239 244 251 243 231 225 224 230 233 230 229 229 224 218 214 210 210 209 203 201 197 189 187 190
211 164 168 175 181 194 197 181 168 124 228 175 176 219 144 137 55 15 18 86 67 51 52 53 52 51 45 42 41 43 46 47 51 54 63 69 71 73 68 61 55 46 47 46 36 40 48 50 41 31 19 11 30 19 349 307 255 238 235 231 228 233 235 235 237 240 242 250 260 264 260 255 248 240 243 252 251 240 230 225 223 226 228 226 222 221 220 212 211 214 209 203 202 200 199 199 194
159 134 129 116 95 91 132 190 157 133 230 188 161 251 165 132 346 10 52 67 61 51 56 58 58 59 55 50 47 48 51 52 56 60 61 59 59 59 56 56 58 54 51 49 49 51 55 56 47 42 41 38 38 33 18 352 265 236 239 240 236 238 238 232 235 243 242 242 252 257 255 253 250 237 225 240 253 247 234 224 220 220 221 220 218 219 218 217 220 219 209 204 205 204 202 200 200
130 137 123 104 90 70 82 65 125 167 209 180 122 292 232 144 187 340 28 44 56 65 66 64 64 64 61 56 51 50 53 53 54 57 57 56 55 49 46 48 49 53 53 47 45 46 52 56 52 52 47 32 17 0 336 311 288 251 243 253 254 251 242 220 214 230 233 231 237 246 250 251 253 241 223 235 242 237 233 226 218 220 218 217 220 218 216 222 224 218 209 208 208 206 200 198 204
142 151 140 132 121 117 140 109 183 196 188 124 1 293 236 158 154 168 151 73 67 72 69 71 73 68 62 59 56 52 52 52 51 51 47 48 49 45 41 39 37 42 43 40 38 37 39 42 42 48 45 30 13 348 322 304 289 269 255 260 264 262 249 227 218 224 224 225 230 236 242 244 246 237 228 241 237 220 221 221 216 218 219 219 221 217 214 219 222 217 209 209 210 208 202 198 202
185 171 163 168 161 163 178 176 196 205 161 87 316 275 101 66 78 138 138 98 73 65 62 70 75 70 64 59 55 53 51 50 49 45 39 38 38 37 36 34 31 31 31 30 27 25 26 26 25 27 23 11 357 337 314 297 285 270 260 260 265 265 254 243 238 233 226 227 231 229 230 229 231 224 216 232 238 219 215 220 218 216 215 218 218 214 213 213 214 213 209 211 214 214 211 204 203
191 184 180 179 168 165 173 169 183 202 138 112 293 266 123 104 132 142 123 102 81 77 71 72 74 70 65 60 54 53 50 48 47 43 39 36 30 28 30 31 30 27 24 24 22 19 19 16 15 14 7 358 348 333 315 302 295 283 267 263 266 263 254 250 250 247 237 235 234 230 228 224 224 224 214 222 239 234 224 224 222 217 216 218 215 210 210 208 207 209 211 216 220 221 218 211 207
186 189 190 181 178 172 166 161 168 165 130 111 357 205 137 135 147 136 123 122 107 95 83 75 71 64 61 56 50 49 47 44 44 42 40 38 31 26 26 30 32 29 24 21 18 16 13 12 10 8 3 360 353 337 317 307 307 300 284 271 270 267 264 266 265 259 247 242 241 236 234 233 229 229 223 220 233 239 235 231 227 223 222 221 218 213 207 204 204 207 210 216 222 223 219 213 211
185 169 185 192 182 134 109 89 101 119 118 88 33 62 94 101 135 152 171 160 131 109 88 78 70 61 58 52 45 43 41 36 32 32 32 29 29 26 23 24 24 23 23 21 18 16 13 8 5 4 2 359 356 347 332 320 313 307 300 290 285 283 281 281 279 269 253 246 245 243 241 240 233 230 230 221 219 225 227 227 228 227 225 222 221 215 203 201 208 214 215 213 218 221 216 212 212
147 179 189 188 112 110 120 112 25 51 146 111 33 111 126 125 154 174 183 163 136 116 93 85 78 71 65 55 49 45 40 37 31 29 27 23 25 26 23 20 15 13 14 15 14 15 14 9 4 2 0 357 353 349 344 338 325 311 306 302 298 296 292 288 281 273 264 253 249 247 245 244 237 231 231 222 213 215 217 220 224 226 224 221 219 214 207 209 212 219 224 216 213 215 211 208 209
143 180 173 134 77 83 114 131 105 146 156 114 45 146 163 167 160 171 180 170 143 124 107 96 82 76 70 59 57 51 43 43 36 30 27 26 28 26 23 20 14 12 11 10 11 11 12 10 7 3 359 355 350 345 343 343 335 321 310 306 305 302 296 289 280 272 268 261 252 248 246 245 240 232 230 222 213 213 215 218 222 223 223 222 220 216 215 215 211 213 224 224 217 212 207 205 207
131 161 154 141 169 168 153 148 153 155 135 113 107 139 219 208 176 172 180 174 149 128 109 94 78 73 71 60 56 50 44 41 34 29 25 26 27 24 22 19 14 13 11 11 14 14 13 12 10 9 5 359 352 346 342 336 331 326 316 309 307 300 291 282 274 268 265 260 255 251 248 244 240 237 239 229 216 213 213 214 216 218 220 221 220 218 217 215 209 207 217 224 223 216 207 202 203
47 133 151 190 196 166 161 126 143 154 137 135 135 137 243 223 180 181 182 169 147 127 106 93 80 73 69 58 52 47 43 40 31 27 25 24 25 23 23 20 17 16 13 11 12 11 11 10 7 6 4 1 358 354 349 338 326 318 313 311 301 284 279 275 268 263 262 258 254 251 247 244 241 240 241 233 220 216 214 212 213 216 219 219 217 217 215 212 209 206 208 215 220 216 207 200 197
144 159 161 145 92 127 137 93 48 131 142 145 141 176 238 223 133 183 180 160 142 130 117 109 96 81 71 58 54 48 44 42 30 21 22 24 24 25 25 23 20 18 14 11 9 7 8 7 3 1 359 357 355 353 351 344 331 314 302 300 292 281 280 279 268 260 259 257 259 256 248 247 247 242 237 231 222 217 215 216 218 220 221 220 217 214 210 207 205 203 200 206 216 213 206 204 197
155 169 172 153 127 137 151 148 89 66 117 145 151 186 217 84 66 194 174 147 136 133 123 116 106 92 79 62 56 52 45 40 28 17 17 22 23 22 19 16 12 10 10 8 5 5 7 7 4 360 355 352 350 345 341 339 332 318 302 291 289 287 286 282 271 262 258 257 260 258 247 247 248 241 234 229 222 215 214 215 216 220 222 220 216 212 207 203 198 197 198 205 213 208 200 203 196